Temperature
4 4 4 4 4 4 4 4 4 5 4 6 5 5 5 6 6 6 6 6 6 6 5 5 5 5 5 5 5 5 5 5 5 4 4 4 4 4 4 4 4 3 3 3
3 4 3 4 4 4 4 4 4 4 5 5 5 5 5 5 5 5 5 5 5 5 5 5 5 5 5 5 5 5 5 4 4 4 4 4 4 4 4 3 3 3 3 3
2 3 3 3 4 4 3 3 3 4 5 4 4 4 5 5 5 5 5 5 5 5 5 5 5 5 5 5 5 4 4 4 4 4 4 4 3 3 3 3 3 3 3 3
1 2 3 5 4 4 4 3 3 3 4 4 4 5 5 6 6 6 6 5 5 5 5 5 5 5 5 4 4 4 4 4 4 3 3 3 3 3 3 3 3 3 3 2
1 2 3 3 4 3 3 3 3 3 3 3 4 4 4 6 6 6 6 6 5 5 5 5 5 5 4 4 4 4 4 3 3 3 3 3 3 3 2 2 2 2 2 2
1 2 3 4 4 3 4 4 3 3 3 3 2 2 3 5 5 5 5 5 5 5 5 5 4 4 4 4 4 3 3 3 3 3 2 2 2 2 2 2 2 2 2 2
1 2 2 3 3 3 4 4 4 3 3 3 2 4 5 5 5 5 5 5 4 4 4 4 4 4 4 3 3 3 3 3 2 2 2 2 2 2 2 2 2 1 1 1
1 1 2 2 2 3 3 4 4 4 4 4 4 4 4 5 5 4 4 4 4 4 4 4 3 3 3 3 3 3 2 2 2 2 2 2 2 1 1 1 1 1 1 1
2 3 3 3 3 4 4 4 4 4 4 4 4 4 4 4 4 4 3 4 3 3 3 3 3 3 2 2 2 2 2 2 2 2 1 1 1 1 1 1 0 0 0 0
-0 1 2 3 3 3 4 4 4 4 4 4 3 3 4 3 3 3 3 3 3 3 2 2 2 2 2 2 1 1 1 1 1 1 1 1 0 0 0 0 -0 -0 -0 -1
-1 0 1 2 3 3 3 3 4 4 3 3 3 3 3 3 3 3 2 2 2 2 2 2 1 1 1 1 1 1 0 0 0 0 0 -0 -0 -0 -0 -0 -1 -1 -1 -1
0 1 1 2 3 3 3 3 3 3 3 3 3 3 3 2 2 2 2 2 1 1 1 1 1 1 1 0 0 0 -0 -0 -0 -0 -0 -1 -1 -1 -1 -1 -1 -1 -2 -2
2 2 2 2 2 2 2 2 2 2 2 2 2 2 2 2 1 1 1 1 1 1 1 0 0 0 -0 -0 -0 -1 -1 -1 -1 -1 -1 -1 -1 -1 -1 -1 -1 -2 -2 -2
1 1 1 1 1 1 1 1 1 1 1 1 1 1 1 1 1 1 0 0 0 -0 -0 -0 -0 -0 -1 -1 -1 -1 -1 -1 -1 -1 -1 -2 -2 -2 -2 -2 -2 -2 -2 -2
0 0 0 1 1 1 1 1 0 0 0 0 0 0 0 0 0 -0 -0 -0 -0 -1 -1 -1 -1 -1 -1 -1 -1 -2 -2 -2 -2 -2 -2 -2 -2 -2 -2 -3 -3 -3 -3 -3
-1 -0 -0 -0 -0 -0 -0 -0 -0 -1 -1 -0 -0 -0 -0 -1 -1 -1 -1 -1 -1 -1 -1 -1 -1 -2 -2 -2 -2 -2 -2 -2 -2 -2 -3 -3 -3 -3 -3 -3 -3 -3 -3 -3
-2 -2 -2 -2 -1 -1 -1 -1 -1 -1 -1 -1 -1 -1 -1 -1 -1 -1 -1 -2 -2 -2 -2 -2 -2 -2 -2 -3 -3 -3 -3 -3 -3 -3 -3 -3 -3 -3 -4 -4 -4 -4 -4 -4
-2 -2 -2 -2 -2 -2 -2 -2 -2 -2 -2 -2 -2 -2 -2 -2 -2 -2 -2 -2 -2 -3 -3 -3 -3 -3 -3 -3 -3 -3 -3 -3 -4 -4 -4 -4 -4 -4 -4 -4 -4 -4 -4 -5
-3 -3 -3 -3 -3 -3 -3 -3 -3 -3 -3 -3 -3 -3 -3 -3 -3 -3 -3 -3 -3 -3 -3 -3 -4 -4 -4 -4 -4 -4 -4 -4 -4 -5 -5 -5 -5 -5 -5 -5 -5 -5 -5 -5
-4 -4 -4 -4 -4 -4 -4 -4 -3 -3 -4 -4 -4 -4 -4 -4 -4 -4 -4 -4 -4 -4 -4 -4 -4 -4 -4 -5 -5 -5 -5 -5 -5 -5 -5 -5 -5 -5 -5 -5 -5 -6 -6 -6
-4 -4 -5 -4 -4 -4 -4 -4 -4 -4 -4 -4 -4 -4 -4 -4 -4 -4 -4 -5 -5 -5 -5 -5 -5 -5 -5 -5 -5 -5 -6 -6 -6 -6 -6 -6 -6 -6 -6 -6 -6 -6 -6 -6
-5 -5 -5 -5 -5 -5 -5 -5 -5 -5 -5 -5 -5 -5 -5 -5 -5 -5 -5 -5 -5 -6 -6 -6 -6 -6 -6 -6 -6 -6 -6 -6 -6 -6 -6 -6 -6 -7 -7 -7 -7 -7 -7 -7
-6 -6 -6 -6 -6 -6 -6 -6 -6 -5 -5 -5 -5 -6 -6 -6 -6 -6 -6 -6 -6 -6 -6 -6 -6 -6 -6 -7 -6 -6 -6 -7 -7 -7 -7 -7 -7 -7 -7 -7 -7 -7 -7 -7
-6 -7 -7 -7 -6 -6 -6 -7 -6 -6 -6 -6 -6 -6 -7 -6 -6 -7 -7 -7 -7 -7 -7 -7 -7 -7 -7 -7 -7 -7 -7 -7 -7 -7 -7 -7 -7 -7 -7 -8 -8 -8 -8 -8
-7 -7 -7 -7 -7 -7 -7 -7 -7 -7 -7 -7 -7 -7 -7 -7 -7 -7 -7 -7 -7 -7 -7 -7 -7 -7 -7 -7 -7 -8 -8 -8 -8 -8 -8 -8 -8 -8 -8 -8 -8 -8 -8 -8
-8 -8 -8 -8 -8 -8 -8 -8 -8 -8 -8 -8 -8 -8 -8 -8 -8 -8 -8 -8 -8 -8 -8 -8 -8 -8 -8 -8 -8 -8 -8 -8 -8 -8 -8 -8 -8 -8 -8 -8 -8 -8 -8 -8
-8 -8 -8 -8 -8 -8 -8 -8 -8 -8 -8 -8 -8 -8 -8 -8 -8 -8 -8 -8 -8 -9 -9 -8 -8 -8 -8 -8 -8 -8 -8 -8 -8 -9 -9 -9 -9 -9 -9 -9 -8 -8 -8 -8
Wind_Speed
9 7 6 9 10 9 10 10 10 11 12 14 10 9 7 5 4 4 4 4 4 3 3 2 2 2 1 1 1 1 1 1 1 1 1 1 1 1 1 2 2 2 2 2
7 6 7 10 12 13 14 11 12 13 16 12 8 5 5 5 4 5 6 5 5 4 3 3 3 2 1 1 1 1 1 1 1 1 1 1 1 1 1 1 1 2 2 3
5 4 4 10 11 13 9 8 9 13 14 7 5 6 7 6 6 7 7 6 5 5 5 4 4 3 3 2 1 1 1 1 1 1 1 1 1 1 1 1 1 2 3 3
3 1 8 8 3 7 9 8 8 8 8 6 8 7 5 5 6 7 7 6 6 5 4 4 3 2 2 1 1 1 1 1 1 1 1 1 1 1 2 2 2 2 3 3
3 5 9 8 4 4 6 8 7 10 9 7 3 2 4 5 6 7 7 5 5 4 3 3 2 2 2 1 1 0 1 1 1 1 1 1 2 2 2 2 2 3 3 3
5 5 7 6 3 2 3 6 4 5 7 4 2 1 6 4 3 4 3 2 2 1 1 1 1 2 2 1 1 1 2 2 1 1 2 2 3 2 2 2 3 2 3 3
8 8 8 6 2 3 3 6 5 4 5 3 5 6 4 2 2 2 1 1 2 2 2 2 1 2 2 1 2 2 1 1 0 1 2 2 2 1 1 2 2 2 3 3
5 7 9 2 3 5 6 5 4 4 4 4 5 4 3 2 2 1 0 1 2 2 1 1 2 2 2 2 2 1 0 0 1 1 1 1 1 2 1 1 1 2 2 3
8 8 5 3 5 6 4 5 5 5 5 4 4 4 3 2 1 1 1 1 1 2 1 0 1 2 2 2 1 0 1 1 1 2 2 1 1 1 1 1 1 2 2 3
7 9 7 7 7 7 6 6 6 5 5 4 4 4 3 2 1 1 1 1 1 2 1 1 1 1 1 1 0 1 0 1 1 1 2 2 2 1 1 2 2 2 3 3
9 9 8 8 8 7 6 5 4 4 4 4 3 3 3 2 2 2 1 0 1 1 1 1 1 0 0 0 1 1 0 1 1 1 1 1 2 2 2 3 3 3 3 3
10 8 7 9 8 6 6 6 5 4 4 4 4 4 3 3 2 1 1 0 0 0 0 0 0 0 1 0 1 1 1 1 1 1 1 1 2 3 4 4 5 6 5 5
10 9 9 9 8 6 6 6 5 4 4 3 2 3 3 2 1 1 1 1 1 1 1 0 0 1 2 1 0 1 1 1 1 1 1 1 2 2 3 4 5 5 4 5
8 6 8 8 8 6 4 3 2 1 1 1 1 1 2 1 1 1 1 1 1 1 0 0 0 2 2 1 1 1 1 2 2 2 2 2 2 2 2 3 4 3 4 5
8 8 9 7 5 3 1 1 0 1 1 1 0 1 1 1 1 1 1 0 1 1 0 0 1 2 2 1 1 1 1 1 1 2 2 2 2 2 2 3 3 3 3 4
7 5 4 4 4 3 1 1 2 2 1 1 1 0 1 1 1 0 1 0 1 1 1 1 1 2 2 1 1 2 2 3 3 2 2 2 2 2 3 3 3 3 3 3
2 3 3 3 4 3 3 2 2 2 2 1 1 0 1 1 1 1 1 1 1 1 1 1 2 2 2 1 1 1 2 2 3 3 2 2 3 3 3 3 3 3 4 5
3 4 3 3 3 3 2 2 1 1 1 1 0 1 1 1 1 1 1 1 2 2 2 2 2 2 2 2 2 1 1 2 2 2 3 3 3 3 3 3 3 4 4 5
4 3 3 2 1 0 1 1 0 0 0 1 1 1 0 0 0 0 1 1 1 2 3 2 3 3 2 2 3 1 1 2 3 3 3 4 4 3 3 3 3 3 4 4
4 4 4 4 3 3 2 2 2 2 1 1 2 1 1 1 1 1 1 1 1 2 2 3 3 2 2 2 3 1 2 2 3 3 3 3 3 3 3 3 3 3 3 3
4 4 4 4 5 4 4 3 2 2 2 2 2 1 1 1 1 1 1 2 2 2 2 3 3 2 2 3 3 1 2 2 2 3 3 3 3 3 3 3 3 3 3 3
4 4 5 5 5 5 4 4 3 3 3 3 3 2 2 2 2 2 1 1 2 3 3 2 2 3 4 4 2 2 2 2 2 2 3 3 3 3 3 3 3 3 3 3
4 4 4 4 4 4 4 4 4 3 3 3 3 2 2 2 2 1 2 2 2 3 3 3 4 5 6 3 2 2 2 2 2 3 3 3 3 3 3 3 3 2 2 3
4 5 5 4 4 5 5 5 4 4 3 3 3 3 2 2 3 3 2 3 4 5 3 4 6 6 6 3 2 2 2 2 3 3 3 3 3 2 2 2 2 3 3 3
5 5 5 5 5 4 4 4 5 5 5 4 5 5 4 3 2 3 3 3 5 5 4 5 7 7 5 3 3 2 2 2 3 3 3 3 3 2 2 2 2 3 3 3
4 4 4 4 4 3 3 4 4 4 4 4 4 4 4 4 3 3 3 4 4 5 4 3 4 5 3 3 3 3 3 3 3 3 3 3 3 3 3 3 3 3 3 3
5 5 4 5 5 5 4 4 4 4 4 4 4 4 4 4 4 4 4 4 4 4 4 4 3 3 3 3 3 3 3 3 3 3 3 3 3 3 3 3 3 3 3 3
Wind_Direction
256 265 249 249 245 223 221 222 229 248 251 264 266 258 262 260 262 259 257 251 241 243 254 272 291 302 308 287 265 197 177 179 200 206 193 187 186 202 207 195 201 205 213 227
272 261 257 267 252 234 235 236 241 258 267 267 265 252 256 255 246 249 252 249 246 245 244 252 260 270 282 292 275 190 177 192 205 197 201 199 209 210 204 213 213 211 222 228
265 282 301 265 236 221 222 214 208 238 255 272 259 243 236 239 240 243 245 238 234 235 233 236 241 238 241 241 236 179 199 209 206 206 223 240 241 225 229 230 226 236 241 237
249 275 243 248 226 210 223 238 225 241 262 255 248 252 240 233 231 244 239 230 230 231 237 237 227 225 226 202 148 176 225 244 238 219 235 264 253 249 255 249 238 245 250 248
202 238 268 286 262 200 214 255 240 242 263 277 287 328 288 253 233 233 230 226 223 219 224 215 206 191 158 148 136 148 248 261 258 238 234 244 257 263 270 261 261 255 254 251
204 226 244 259 294 259 167 268 274 235 253 269 111 255 273 278 257 249 242 222 211 191 174 181 203 155 144 162 174 244 253 261 271 250 232 242 250 256 264 259 260 266 273 265
224 238 257 270 320 96 180 262 302 245 242 203 199 231 269 287 275 251 236 217 167 157 168 197 177 151 161 188 236 255 262 277 307 278 259 259 256 260 270 274 284 282 286 289
208 231 250 242 121 192 243 293 296 277 252 236 252 277 289 282 273 235 171 147 150 151 183 193 155 153 174 242 268 297 350 353 328 315 305 307 281 293 286 266 286 292 296 299
211 232 268 221 231 254 273 279 277 269 266 257 266 274 272 270 260 244 189 173 155 153 154 183 166 166 197 258 299 40 38 348 331 336 332 321 280 278 290 273 268 287 286 289
256 264 269 265 272 279 273 270 277 270 265 245 253 257 253 246 250 225 183 171 146 135 146 237 270 210 214 240 207 124 129 317 328 331 331 334 314 287 275 279 278 281 282 287
260 275 294 278 261 268 280 285 287 287 270 241 231 241 232 232 229 225 236 236 159 164 189 229 242 271 288 218 132 135 234 288 305 302 297 313 311 295 280 262 255 262 266 272
249 251 251 269 271 267 274 279 274 278 281 261 219 226 221 223 227 214 213 189 140 157 191 244 256 339 339 323 156 173 255 281 282 289 293 292 309 323 316 296 299 295 284 284
253 264 258 268 279 274 263 268 267 255 247 252 237 202 191 206 217 190 197 200 202 207 214 266 352 343 335 325 268 215 245 269 277 275 273 280 286 297 316 330 331 322 317 312
256 262 267 264 271 273 264 265 275 301 297 258 230 158 148 156 158 177 223 243 225 160 152 170 343 321 327 328 321 287 272 276 277 271 272 272 272 277 283 298 316 325 329 326
263 255 255 264 272 280 278 231 160 322 355 352 43 136 154 172 202 246 274 258 108 117 110 5 332 319 332 343 333 305 293 284 281 280 279 277 276 278 280 282 287 302 317 322
283 274 257 253 254 266 257 214 209 243 266 293 302 267 211 180 181 321 334 115 146 238 263 293 310 313 328 338 328 317 303 292 299 289 287 289 284 280 280 279 282 287 294 302
298 287 284 281 264 264 262 253 231 233 245 252 237 178 110 101 83 42 357 347 330 293 290 303 314 325 330 322 310 303 303 300 308 305 290 283 281 279 276 275 278 284 287 289
281 274 269 261 251 258 270 270 243 241 255 257 98 103 117 141 202 276 330 10 16 5 349 341 333 338 338 320 310 297 296 294 292 285 285 284 284 282 281 279 278 284 291 296
336 327 330 339 335 274 266 287 350 74 59 102 110 123 189 231 219 331 28 28 0 328 325 333 335 347 338 318 321 298 288 290 293 287 282 288 296 290 288 284 285 288 292 297
357 9 19 22 28 33 35 36 54 60 58 89 97 78 32 357 27 47 46 350 299 297 313 328 340 342 332 316 323 299 286 287 289 289 290 284 282 284 285 285 289 293 296 297
8 18 24 26 24 28 33 38 52 45 33 54 76 66 16 4 22 40 34 334 331 343 342 344 350 336 324 322 327 318 301 292 289 289 289 287 287 287 288 291 292 291 292 296
15 22 24 26 32 27 24 31 43 45 41 40 41 43 47 33 26 20 358 317 323 339 350 345 336 326 328 333 336 325 313 302 298 299 295 292 291 290 290 291 290 291 293 294
20 24 27 29 33 27 25 31 35 39 38 30 24 25 28 14 359 355 337 340 341 344 347 336 330 334 341 352 347 339 327 317 309 303 298 293 291 290 289 291 292 295 296 297
30 34 34 33 42 45 34 22 24 29 31 28 23 21 22 18 7 2 342 341 351 351 349 343 347 349 357 7 355 338 322 310 302 297 294 293 293 293 290 289 292 297 295 292
36 39 39 38 39 35 29 25 30 31 32 31 26 21 16 11 359 347 350 351 352 356 357 352 352 354 360 347 336 323 309 296 293 295 291 293 292 293 293 292 291 292 292 291
35 33 31 31 30 25 21 24 25 18 18 19 15 11 9 8 6 359 357 356 357 356 355 345 341 345 343 332 324 318 311 307 312 312 301 297 291 290 289 289 288 284 284 284
35 33 30 27 23 20 19 20 19 10 7 7 360 359 1 0 0 359 357 355 353 349 342 338 336 335 329 324 320 316 314 310 304 299 296 293 291 289 287 284 284 285 285 283
Height
1499 1497 1497 1495 1494 1496 1497 1495 1494 1484 1481 1470 1468 1467 1466 1466 1466 1466 1465 1464 1464 1464 1464 1464 1463 1463 1463 1463 1464 1464 1464 1464 1464 1465 1465 1465 1465 1465 1466 1466 1467 1468 1469 1469
1499 1495 1494 1492 1488 1488 1487 1486 1484 1480 1473 1465 1465 1464 1463 1463 1463 1462 1461 1461 1461 1462 1461 1461 1461 1461 1461 1461 1461 1461 1461 1462 1462 1463 1463 1463 1463 1463 1463 1464 1464 1465 1465 1466
1499 1494 1491 1488 1478 1478 1478 1476 1475 1473 1465 1462 1462 1461 1459 1459 1459 1458 1458 1458 1458 1458 1458 1459 1459 1459 1459 1459 1459 1459 1459 1459 1460 1460 1461 1461 1461 1461 1460 1460 1461 1461 1462 1462
1500 1496 1494 1472 1467 1467 1468 1467 1467 1463 1460 1458 1457 1456 1455 1456 1456 1455 1454 1454 1455 1455 1456 1456 1456 1456 1457 1457 1457 1457 1457 1457 1458 1458 1458 1458 1458 1458 1458 1458 1458 1458 1458 1458
1498 1494 1481 1471 1465 1465 1467 1463 1459 1459 1456 1455 1455 1454 1452 1452 1452 1452 1452 1452 1452 1453 1453 1453 1454 1454 1454 1454 1455 1455 1455 1455 1455 1455 1455 1455 1455 1455 1455 1455 1455 1454 1454 1454
1493 1487 1477 1465 1460 1458 1460 1460 1453 1453 1452 1453 1453 1456 1451 1448 1449 1449 1449 1449 1450 1450 1450 1451 1451 1452 1452 1452 1452 1452 1452 1452 1453 1453 1452 1452 1452 1452 1452 1452 1451 1451 1451 1451
1487 1481 1470 1463 1459 1459 1464 1456 1450 1448 1448 1450 1450 1449 1447 1446 1446 1446 1446 1447 1447 1448 1448 1448 1449 1449 1449 1449 1449 1450 1450 1450 1450 1450 1450 1450 1449 1449 1449 1448 1448 1447 1447 1447
1482 1479 1469 1458 1459 1460 1455 1450 1448 1446 1445 1446 1445 1445 1444 1443 1443 1443 1443 1444 1445 1445 1445 1446 1447 1447 1446 1447 1447 1447 1448 1448 1447 1447 1447 1447 1446 1446 1445 1445 1444 1443 1443 1442
1468 1462 1455 1454 1453 1452 1451 1449 1446 1445 1443 1443 1442 1441 1441 1441 1441 1441 1442 1442 1442 1443 1443 1444 1444 1445 1444 1445 1445 1445 1445 1445 1445 1445 1444 1444 1444 1443 1442 1442 1441 1440 1439 1438
1463 1455 1452 1451 1449 1448 1447 1446 1444 1443 1441 1440 1439 1439 1438 1439 1439 1439 1439 1440 1440 1440 1441 1441 1442 1442 1442 1442 1442 1442 1442 1442 1442 1442 1441 1441 1441 1440 1440 1439 1438 1437 1436 1435
1458 1452 1450 1446 1445 1444 1443 1441 1440 1439 1438 1437 1436 1436 1436 1436 1436 1437 1437 1438 1438 1438 1438 1439 1439 1439 1440 1440 1439 1439 1439 1439 1439 1439 1438 1438 1438 1437 1437 1436 1436 1434 1433 1432
1450 1447 1447 1442 1440 1440 1439 1437 1436 1435 1434 1433 1433 1433 1433 1433 1434 1434 1435 1435 1435 1436 1436 1436 1437 1437 1437 1437 1437 1436 1436 1436 1436 1435 1435 1435 1434 1434 1433 1433 1432 1431 1430 1429
1443 1441 1440 1438 1437 1436 1435 1434 1433 1432 1431 1430 1430 1430 1430 1431 1431 1432 1432 1433 1433 1433 1434 1434 1434 1434 1434 1434 1434 1433 1433 1433 1432 1432 1432 1432 1431 1430 1429 1429 1429 1428 1427 1426
1438 1437 1434 1432 1432 1431 1430 1429 1429 1428 1428 1428 1428 1428 1428 1428 1429 1429 1430 1430 1431 1431 1431 1432 1432 1432 1432 1432 1431 1431 1430 1430 1430 1429 1429 1428 1428 1427 1426 1425 1424 1423 1424 1423
1432 1431 1430 1428 1427 1426 1426 1426 1425 1425 1425 1425 1425 1426 1426 1426 1426 1427 1428 1428 1428 1429 1429 1429 1429 1429 1429 1429 1428 1428 1427 1427 1426 1426 1426 1425 1425 1424 1423 1422 1421 1420 1419 1419
1426 1425 1424 1423 1422 1422 1422 1422 1422 1422 1422 1422 1423 1423 1424 1424 1424 1425 1425 1426 1426 1425 1426 1426 1426 1426 1426 1425 1425 1424 1424 1424 1423 1422 1422 1421 1421 1420 1419 1419 1418 1417 1416 1415
1422 1420 1419 1418 1418 1418 1418 1418 1419 1419 1420 1420 1420 1421 1421 1421 1421 1422 1422 1423 1423 1423 1423 1423 1423 1423 1422 1422 1422 1421 1421 1420 1419 1419 1418 1418 1417 1417 1416 1415 1414 1413 1413 1412
1420 1418 1417 1416 1415 1415 1415 1416 1416 1417 1417 1418 1418 1419 1419 1419 1419 1419 1420 1420 1420 1421 1421 1421 1420 1420 1419 1419 1419 1418 1417 1417 1416 1415 1415 1414 1413 1413 1412 1412 1411 1410 1409 1408
1417 1416 1415 1414 1414 1413 1413 1413 1414 1415 1415 1416 1416 1416 1417 1417 1418 1418 1418 1418 1418 1418 1418 1418 1417 1417 1416 1416 1415 1415 1414 1413 1412 1412 1411 1411 1410 1409 1409 1408 1407 1406 1406 1405
1416 1415 1414 1413 1412 1412 1412 1412 1412 1413 1414 1414 1415 1415 1415 1416 1416 1416 1416 1416 1416 1416 1416 1415 1414 1414 1413 1413 1412 1412 1411 1410 1409 1408 1408 1407 1406 1406 1405 1404 1404 1403 1402 1401
1415 1414 1413 1412 1412 1411 1411 1411 1412 1412 1413 1413 1414 1414 1414 1414 1415 1414 1414 1414 1414 1414 1413 1413 1412 1411 1411 1410 1410 1409 1408 1407 1406 1405 1404 1404 1403 1402 1401 1401 1400 1399 1398 1397
1415 1414 1413 1413 1412 1411 1412 1412 1412 1412 1412 1413 1413 1413 1413 1413 1413 1412 1412 1412 1412 1411 1411 1410 1409 1409 1408 1407 1407 1406 1405 1404 1403 1402 1401 1400 1400 1399 1398 1397 1397 1396 1395 1394
1416 1415 1414 1413 1413 1412 1412 1412 1412 1412 1412 1412 1412 1412 1412 1412 1411 1411 1410 1410 1410 1409 1408 1407 1407 1406 1405 1404 1403 1402 1401 1401 1400 1399 1398 1397 1396 1396 1395 1394 1393 1393 1392 1391
1417 1416 1415 1414 1414 1413 1412 1412 1412 1412 1412 1412 1412 1412 1411 1411 1410 1410 1409 1408 1408 1407 1406 1405 1404 1403 1402 1401 1400 1399 1398 1397 1396 1395 1394 1394 1393 1392 1392 1391 1390 1389 1389 1388
1418 1417 1416 1415 1414 1414 1414 1413 1413 1412 1412 1412 1412 1411 1411 1410 1409 1408 1408 1407 1406 1405 1404 1403 1402 1400 1399 1398 1397 1396 1395 1394 1393 1392 1391 1391 1390 1389 1389 1388 1387 1387 1386 1385
1420 1419 1418 1417 1416 1416 1415 1414 1413 1413 1412 1411 1411 1411 1410 1409 1408 1407 1406 1405 1404 1403 1402 1400 1399 1398 1397 1396 1394 1393 1392 1391 1390 1389 1389 1388 1387 1386 1386 1385 1384 1384 1383 1382
1421 1420 1420 1419 1418 1417 1416 1415 1415 1414 1413 1412 1411 1410 1409 1408 1407 1406 1405 1404 1402 1401 1400 1399 1397 1396 1395 1393 1392 1390 1389 1388 1387 1387 1386 1385 1384 1384 1383 1382 1382 1381 1380 1380